Regional Weather Roundup
Issued by NWS

Home | Current Version | Previous Version | Text Only | Print | Product List | Glossary Off
Versions: 1 2 3 4 5 6 7 8 9 10 11 12 13 14 15 16 17 18 19 20 21 22 23 24 25 26 27 28 29 30 31 32 33 34 35 36 37 38 39 40 41 42 43 44 45 46 47 48 49 50

000
ASUS43 KIND 020259
RWRIN

WEATHER ROUNDUP FOR INDIANA
NATIONAL WEATHER SERVICE INDIANAPOLIS IN
1100 PM EDT WED OCT 01 2014

NOTE: "FAIR" INDICATES FEW OR NO CLOUDS BELOW 12,000 FEET WITH NO
SIGNIFICANT WEATHER AND/OR OBSTRUCTIONS TO VISIBILITY.

* - STATION DOES NOT REPORT WEATHER SUCH AS PRECIPITATION OR FOG.

+ - STATION NOT QUALITY CONTROLLED BY THE NATIONAL WEATHER SERVICE.
    USE DATA WITH CAUTION...ESPECIALLY DEWPOINT AND RELATIVE
    HUMIDITY OBSERVATIONS.

INZ001>003-010>013-019-020-020400-
NORTHWEST INDIANA

CITY           SKY/WX    TMP DP  RH WIND       PRES   REMARKS
GARY /AIRPORT/ PTCLDY    66  50  55 SE9       29.93R
RENSSELAER +   MOCLDY    63  54  72 E8        29.95R
VALPARAISO     NOT AVBL

$$

LMZ046-743>745-020400-
SOUTHERN LAKE MICHIGAN

STATION/POSITION TIME  TEMP WIND        PRES
                       AIR  DIR/SP/G
                 (UTC) (F)  (DEG/KT/KT) (MB)
MICHIGAN CITY    0200   64  110/ 12/ 16   N/A

$$

INZ004-005-014>016-021>024-020400-
NORTH CENTRAL INDIANA

CITY           SKY/WX    TMP DP  RH WIND       PRES   REMARKS
GOSHEN         CLEAR     57  50  77 SE7       29.99S
SOUTH BEND     NOT AVBL
WARSAW +       CLEAR     55  50  82 E3        29.99F

$$

INZ006>009-017-018-025>027-020400-
NORTHEAST INDIANA

CITY           SKY/WX    TMP DP  RH WIND       PRES   REMARKS
ANGOLA *+      CLEAR     57  48  72 SE5       30.02R
FORT WAYNE     PTCLDY    54  49  83 E6        30.01S

$$

INZ028-029-035-036-043>045-051>053-020400-
WEST CENTRAL INDIANA

CITY           SKY/WX    TMP DP  RH WIND       PRES   REMARKS
GREENCASTLE +  MOCLDY    63  59  88 CALM      29.96R
LAFAYETTE      PTCLDY    62  54  74 E6        29.95R
TERRE HAUTE    CLOUDY    68  61  78 SE5       29.94R

$$

INZ030>032-037>040-046>048-054>057-064-065-020400-
CENTRAL INDIANA

CITY           SKY/WX    TMP DP  RH WIND       PRES   REMARKS
FRANKFORT +    PTCLDY    62  54  75 SE7       29.97S
INDIANAPOLIS   PTCLDY    65  55  70 E10       29.96R
-EAGLE CREEK   PTCLDY    65  55  70 E6        29.97R
KOKOMO *+      CLEAR     57  48  72 SE7       29.99S
MT COMFORT *+  CLEAR     63  48  59 SE3       29.99S
SHELBYVILLE    CLEAR     62  54  74 E7        29.98S

$$

INZ033-034-041-042-049-050-058-059-020400-
EAST CENTRAL INDIANA

CITY           SKY/WX    TMP DP  RH WIND       PRES   REMARKS
MUNCIE         CLEAR     59  50  72 SE8       30.00S

$$

INZ060-061-067>069-081>083-085>088-020400-
SOUTHWEST INDIANA

CITY           SKY/WX    TMP DP  RH WIND       PRES   REMARKS
EVANSVILLE     CLEAR     71  58  63 CALM      29.93R

$$

INZ062-063-066-070>080-084-089>092-020400-
SOUTH CENTRAL AND SOUTHEAST INDIANA

CITY           SKY/WX    TMP DP  RH WIND       PRES   REMARKS
BLOOMINGTON    PTCLDY    62  60  93 CALM      29.96S

$$




USA.gov is the U.S. government's official web portal to all federal, state and local government web resources and services.